Flag for Canada

Past Weather in Mary's Harbour, Newfoundland and Labrador, Canada — Yesterday and Last 2 Weeks

Now
43 °F

Mostly cloudy.


Feels Like: 40 °F
Forecast: 45 / 36 °F
Wind: 5 mph from South

Location: Mary's Harbour
Current Time: Oct 21, 2020 at 2:30:31 am
Latest Report: Oct 21, 2020 at 1:30 am
Visibility: 9 mi
Pressure29.95 "Hg
Humidity: 100%
Dew Point: 43 °F
Location of Mary's HarbourLocation

Past Weather in Mary's Harbour — Graph

°F

Mary's Harbour Temperature Yesterday

Maximum temperature yesterday: 50 °F (at 1:30 pm)
Minimum temperature yesterday: 43 °F (at 9:30 pm)
Average temperature yesterday: 45 °F

High & Low Weather Summary for the Past Weeks

 TemperatureHumidityPressure
High64 °F (Oct 16, 2:30 pm)100% (Oct 7, 9:30 pm)30.57 "Hg (Oct 7, 9:30 pm)
Low30 °F (Oct 13, 7:30 am)34% (Oct 10, 4:30 pm)28.48 "Hg (Oct 9, 3:08 am)
Average45 °F87%29.82 "Hg
* Reported Oct 6 1:52 am — Oct 21 1:30 am, Mary's Harbour. Weather by CustomWeather, © 2020

Note: Actual official high and low records may vary slightly from our data, if they occured in-between our weather recording intervals... More about our weather records

Mary's Harbour Weather History for the Previous 24 Hours

Scroll right to see more
 ConditionsComfort  
Time TempWeatherWind HumidityBarometerVisibility
1:30 am
Wed, Oct 21
43 °FMostly cloudy.5 mph100%29.95 "Hg9 mi
12:30 am43 °FOvercast.3 mph100%29.96 "Hg9 mi
12:14 am43 °FLight rain. Overcast.3 mph100%29.96 "Hg9 mi
11:32 pm
Tue, Oct 20
43 °FOvercast.5 mph100%29.95 "Hg9 mi
10:32 pm43 °FLight rain. Overcast.5 mph100%29.98 "Hg8 mi
9:30 pm43 °FLight rain. Fog.5 mph100%30.01 "Hg5 mi
8:30 pm45 °FLight rain. Fog.3 mph93%30.06 "Hg5 mi
8:29 pm45 °FLight rain. Fog.3 mph93%30.06 "Hg5 mi
7:30 pm45 °FOvercast.6 mph93%30.09 "Hg9 mi
7:14 pm45 °FMostly cloudy.6 mph93%30.10 "Hg9 mi
6:50 pm45 °FOvercast.6 mph93%30.12 "Hg9 mi
6:30 pm45 °FOvercast.9 mph87%30.13 "Hg9 mi
5:30 pm45 °FMostly cloudy.8 mph81%30.16 "Hg9 mi
4:30 pm48 °FOvercast.8 mph71%30.19 "Hg9 mi
3:30 pm48 °FOvercast.9 mph76%30.21 "Hg9 mi
2:30 pm50 °FPartly sunny.8 mph71%30.22 "Hg9 mi
1:30 pm50 °FSunny.5 mph71%30.23 "Hg9 mi
12:30 pm46 °FOvercast.3 mph82%30.29 "Hg9 mi
11:30 am46 °FMostly cloudy.5 mph76%30.31 "Hg9 mi
10:30 am45 °FPartly sunny.5 mph81%30.31 "Hg9 mi
5:30 am45 °FOvercast.3 mph76%30.32 "Hg9 mi
4:30 am45 °FOvercast.5 mph81%30.31 "Hg9 mi
3:30 am45 °FOvercast.3 mph87%30.31 "Hg9 mi
2:30 am45 °FMostly cloudy.8 mph87%30.31 "Hg9 mi
Weather by CustomWeather, © 2020

See weather overview